Regional Weather Roundup
Issued by NWS

Home | Current Version | Previous Version | Text Only | Print | Product List | Glossary Off
Versions: 1 2 3 4 5 6 7 8 9 10 11 12 13 14 15 16 17 18 19 20 21 22 23 24 25 26 27 28 29 30 31 32 33 34 35 36 37 38 39 40 41 42 43 44 45 46 47 48 49 50

000
ASUS43 KMKX 270211
RWRWI

WISCONSIN REGIONAL WEATHER ROUNDUP
NATIONAL WEATHER SERVICE MILWAUKEE/SULLIVAN WI
800 PM CST WED NOV 26 2014

NOTE: "FAIR" INDICATES FEW OR NO CLOUDS BELOW 12,000 FEET WITH NO
SIGNIFICANT WEATHER AND/OR OBSTRUCTIONS TO VISIBILITY.

WIZ001-002-006>008-014>016-023>028-270300-
NORTHWEST WISCONSIN

CITY           SKY/WX    TMP DP  RH WIND       PRES   REMARKS
SUPERIOR ARPT  PTCLDY    10  -1  59 N9G17     30.38R WCI  -2
ASHLAND        CLOUDY    17  11  77 N13       30.31R WCI   4
HAYWARD        CLOUDY    16  11  80 N7        30.27R WCI   6
SIREN          CLOUDY    17   7  64 N13G18    30.31R WCI   4
CUMBERLAND     CLOUDY    19  10  68 N12       30.25S WCI   7
RICE LAKE      FLURRIES  20  15  79 N10       30.28R WCI   9
CHETEK         LGT SNOW  20  15  81 NW7       30.26R WCI  11
LADYSMITH      CLOUDY    22  17  81 NW9       30.24R WCI  11
EAU CLAIRE     MOCLDY    22  15  75 NW9       30.24R WCI  12
MENOMONIE      CLOUDY    24  18  75 NW6       30.26S WCI  17
NEW RICHMOND   CLOUDY    20  12  69 N10G16    30.29R WCI   9
OSCEOLA        CLOUDY    21  11  66 N15       30.33R WCI   8
$$

WIZ003>005-009-010-017-018-270300-
NORTH CENTRAL WISCONSIN

CITY           SKY/WX    TMP DP  RH WIND       PRES   REMARKS
MANITOWISH WTR LGT SNOW  19  18  96 CALM      30.16S
ARBOR VITAE    FLURRIES  22  19  87 NW7       30.15S WCI  13
WOODRUFF       FLURRIES  22  19  87 NW7       30.15S WCI  13
RHINELANDER    CLOUDY    20  16  84 N3        30.14S
EAGLE RIVER    FLURRIES  19  15  85 N6        30.13S WCI  10
LAND O LAKES   CLOUDY    20  18  93 N7        30.14F WCI  11
PHILLIPS       FLURRIES  19  14  82 N5        30.18S WCI  12
TOMAHAWK       MOCLDY    20  16  86 CALM      30.16S
MEDFORD        CLOUDY    22  18  86 NW6       30.16F WCI  14
MERRILL        FLURRIES  22  18  83 N14       30.15F WCI  10
$$

WIZ029-030-035-036-043>047-270300-
CENTRAL WISCONSIN

CITY           SKY/WX    TMP DP  RH WIND       PRES   REMARKS
WAUSAU         CLOUDY    23  19  85 NW8       30.15S WCI  14
MOSINEE        LGT SNOW  21  21 100 NW7       30.17S WCI  13
MARSHFIELD     LGT SNOW  22  19  89 NW9       30.17S FOG     WCI  12
STEVENS POINT  MIX PCPN  22  20  93 W5        30.18S WCI  15
WAUPACA        LGT SNOW  20  18  91 CALM      30.18F
WAUTOMA        CLOUDY    18  16  92 NW3       30.20S
WISC RAPIDS    LGT SNOW  22  19  89 NW6       30.20S WCI  14
CAMP DOUGLAS   LGT SNOW  23  23 100 NW5       30.20S FOG     WCI  17
$$

WIZ011>013-019>022-031-037>040-048>050-270300-
NORTHEAST WISCONSIN

CITY           SKY/WX    TMP DP  RH WIND       PRES   REMARKS
ANTIGO         CLOUDY    20  18  92 NW7       30.13S WCI  11
SHAWANO        CLOUDY    23  19  86 W3        30.17S
OCONTO         CLOUDY    19  18  93 W3        30.17S
STURGEON BAY   CLOUDY    23  18  80 NW5       30.15F WCI  17
GREEN BAY      CLOUDY    18  15  88 CALM      30.17S FOG
MANITOWOC      PTCLDY    18  16  92 CALM      30.17F FOG
APPLETON       MOCLDY    18  16  93 W6        30.17S WCI   9
CLINTONVILLE   CLOUDY    19  19 100 CALM      30.17S
OSHKOSH        MOCLDY    19  16  88 MISG      30.18S FOG
$$

WIZ032>034-041-042-053>061-270300-
SOUTHWEST WISCONSIN

CITY           SKY/WX    TMP DP  RH WIND       PRES   REMARKS
LA CROSSE      FLURRIES  25  22  88 N6        30.25R WCI  18
SPARTA         FLURRIES  24  22  90 NW6       30.24R WCI  17
VIROQUA        CLOUDY    23  23 100 NW7       30.20R WCI  15
BOSCOBEL       CLOUDY    21  17  84 CALM      30.24R FOG
PRAIRIE DU CHI MIX PCPN  25  22  87 NW3       30.24R
PLATTEVILLE    MOCLDY    22  19  89 CALM      30.21R
$$

WIZ056-057-062-063-064-067-068-270300-
SOUTH CENTRAL WISCONSIN

CITY           SKY/WX    TMP DP  RH WIND       PRES   REMARKS
REEDSBURG      CLOUDY    18  16  95 CALM      30.20S FOG
BARABOO/DELLS  CLOUDY    16  14  93 CALM      30.19S FOG
LONE ROCK      CLOUDY    20  15  81 W5        30.23R HAZE    WCI  13
MINERAL POINT  MOCLDY    23  19  86 CALM      30.18S FOG
MADISON        MOCLDY    17  14  88 NW3       30.20R
MIDDLETON      MOCLDY    17  15  92 CALM      30.20S
WATERTOWN      PTCLDY    19  18  94 N5        30.17S WCI  12
MONROE         MOCLDY    19  19 100 NW7       30.18R FOG     WCI  10
JANESVILLE     CLEAR     21  18  86 N7        30.18R FOG     WCI  13
$$

WIZ051-052-058>065-066-070>072-270300-
SOUTHEAST WISCONSIN

CITY           SKY/WX    TMP DP  RH WIND       PRES   REMARKS
MILWAUKEE      CLOUDY    27  20  75 NW10      30.15S WCI  17
WAUKESHA       CLOUDY    21  18  86 NW5       30.17R FOG     WCI  15
MILWAUKEE/TIMM PTCLDY    25  18  74 NW12      30.17R WCI  14
RACINE         CLOUDY    28  21  75 NW10      30.16R WCI  19
BURLINGTON     CLOUDY    21  19  89 N8        30.16R FOG     WCI  12
KENOSHA        CLOUDY    27  22  81 NW9       30.14R HAZE    WCI  18
FOND DU LAC    FLURRIES  20  16  84 W6        30.18S WCI  12
SHEBOYGAN      PTCLDY    19  16  88 NW6       30.17S FOG     WCI  11
WEST BEND      MOCLDY    21  18  86 CALM      30.17S FOG
JUNEAU         PTCLDY    17  15  92 CALM      30.19S FOG
$$

LSZ147-162-270300-
LAKE SUPERIOR

STATION/POSITION TIME  TEMP    WIND        PRES    WAVE
                       AIR SEA DIR/SP/G            HT/PER
                 (UTC) (F)     (DEG/KT/KT) (MB)    (FT/S)
DEVILS ISLAND    0200   17     350/ 21/ 25 1028.1R
PORT WING        0140   17     350/ 18/ 24 1027.1R
SAXON HARBOR     0100   24     340/ 16/ 20 1024.7R
$$

LMZ867-665-643>646-270300-
LAKE MICHIGAN

STATION/POSITION TIME  TEMP    WIND        PRES    WAVE
                       AIR SEA DIR/SP/G            HT/PER
                 (UTC) (F)     (DEG/KT/KT) (MB)    (FT/S)
CHAMBERS ISLAND  0100   25     280/  4/  6 1021.7S
N MID LAKE BUOY  0150   29 42  300/  8/ 12 1021.6S   1
NORTHPORT PIER   0101   27     300/  9/ 14 1021.0S
SISTER BAY       0113          350/  8/ 10   N/A
ALGOMA LAKESHORE 0113          330/  4/  7   N/A
KEWAUNEE LAKESHO 0112   20      CALM  /  3 1020.7R
SHEBOYGAN LAKESH 0200   22 36  320/  9/ 10 1023.0S
PORT WASHINGTON  0100   26     320/  9/ 14 1022.0F
MILWAUKEE LAKESH 0100   28     330/ 10/ 14   N/A
S MID LAKE BUOY  0150   33 42   20/  2/  4 1021.1R   1
KENOSHA   LAKESH 0200   29     320/ 11/ 16 1020.7R
$$

TC  - TEMPERATURE IN CELSIUS
VSB - VISIBILITY IN STATUTE MILES
WCI - WIND CHILL INDEX
HX  - HEAT INDEX




USA.gov is the U.S. government's official web portal to all federal, state and local government web resources and services.